User: anonymous   Login
Location: Unspecified
(0.0000°N, 0.0000°E)
Time: 05:45:04
(UTC+00:00)
Language:

TBA - TO BE ASSIGNED - Orbit

View from above orbital plane
View from above orbital plane
View from above satellite
View from above satellite

Ground track
Ground track

The orbit is defined by the following mean orbital elements,

1 67361U          26145.44623411 +.00000000 +00000-0 +59299-3 0 00006
2 67361  43.0008 153.5124 0001480 270.0983  89.9699 15.27588779    02
Epoch (UTC): 25 May 2026 10:42:34
Eccentricity: 0.0001480
inclination: 43.0008°
perigee height: 482 km
apogee height: 484 km
right ascension of ascending node: 153.5124°
argument of perigee: 270.0983°
revolutions per day: 15.27588779
mean anomaly at epoch: 89.9699°

The dashed part of the orbit path shows where the satellite is in the earth's shadow,  

DLR